CAPE
0 0 0 0 0 0 0 3 4 19 81 122 213 244 534 561 589 572 426 472 495 433 452 540 755 697 463 318 1240 1628 1227 1428 1273 1805 1945 1845 2025 1669 1672 1151 1069 1178 1182 982
0 0 0 0 0 0 0 2 27 1 0 0 337 541 518 557 533 506 500 453 583 582 564 526 642 1199 1073 1327 1895 1962 1987 2402 1800 1928 1785 1875 1676 1943 1846 1673 1523 1973 1485 1213
0 0 0 0 1 0 0 0 0 3 0 0 8 403 589 581 606 532 465 589 571 615 778 827 820 676 1425 1623 1998 2089 2517 2806 2305 2347 2699 2347 2043 2054 1936 1978 1866 1649 1930 1708
0 0 0 0 54 21 18 15 19 5 0 0 0 32 307 284 257 522 395 556 518 606 840 642 957 964 933 1968 2409 2625 3202 3397 2603 2683 2949 2694 2322 2198 1994 2003 2119 2133 2172 2464
0 0 0 0 0 11 17 0 7 19 0 0 0 292 522 0 4 6 30 258 909 50 119 58 65 594 401 1320 2503 3232 3829 3831 3573 3837 3299 3265 2655 2634 2290 2039 2095 1857 1950 2209
0 0 0 0 18 2 4 0 0 0 0 0 0 359 425 8 2 0 0 193 15 0 7 307 256 54 345 747 1934 4076 3954 3707 3253 3739 3519 3174 3056 2754 2553 2334 1827 1530 1680 1803
0 0 0 0 2 11 0 0 0 0 0 0 1 243 160 135 0 93 118 201 218 127 0 127 71 87 1042 1300 3213 3380 3340 3305 3275 3135 3131 3084 2693 2537 2418 2125 1632 1826 1613 1973
0 0 0 0 2 6 22 2 0 0 30 43 53 222 154 28 1 0 0 420 2 0 0 0 0 9 1878 2883 3245 3469 3495 3468 3134 3108 3078 2848 2860 2583 2095 2178 2168 1859 1488 1907
0 0 0 0 54 50 34 2 0 1 0 0 137 108 303 499 193 651 822 371 89 66 17 89 54 596 2248 2792 3458 3550 3539 3525 3088 3144 3075 3044 2540 2230 2191 2083 2126 2292 2131 1989
0 0 0 0 0 0 0 23 52 4 13 343 371 441 337 392 503 1035 970 594 917 1135 1036 994 983 655 1096 1905 2362 2812 2672 1934 1936 2764 2255 2514 2310 2379 2186 1828 2030 2373 2180 2176
0 0 0 0 0 0 0 0 0 0 0 124 202 148 242 216 287 104 581 21 318 1098 1020 943 1302 1190 1053 1130 1395 1548 1089 552 493 747 423 487 1134 606 475 609 627 930 1153 1428
0 0 0 0 42 36 0 8 0 0 44 105 226 255 18 34 132 164 1080 900 1244 1018 808 557 1407 783 553 328 322 248 305 128 78 143 145 260 445 261 168 207 246 454 748 891
0 0 0 0 0 48 0 0 0 0 24 7 159 291 243 219 47 191 4 24 827 469 73 268 779 609 395 273 25 0 1 18 79 101 65 292 154 72 14 0 0 0 0 50
0 0 6 6 44 2 17 7 1 0 0 58 337 192 16 96 284 59 22 29 662 591 497 586 310 382 24 0 4 50 51 0 0 25 10 0 0 0 0 0 0 0 0 0
0 0 145 0 0 0 7 10 18 0 0 35 48 1 10 0 47 48 40 46 919 458 423 473 151 209 53 38 149 24 24 49 6 0 0 0 0 0 0 0 0 0 0 0
0 12 138 30 0 29 9 0 0 40 1 24 3 84 402 524 134 783 718 1009 620 372 180 96 117 57 80 91 30 12 16 0 0 0 0 0 0 0 0 0 0 0 0 0
0 14 209 123 8 21 1 2 1 224 121 4 15 193 223 671 1068 993 868 541 383 290 263 188 104 0 0 0 0 0 0 0 0 0 0 0 0 0 0 0 0 1 0 1
0 0 18 58 63 88 46 5 0 4 224 821 966 926 790 1104 970 843 448 351 208 119 31 0 0 0 0 0 0 0 0 0 0 0 0 0 0 3 1 5 14 7 6 5
0 0 36 276 23 42 95 37 0 0 165 878 1056 1110 1083 929 809 590 355 195 85 32 0 0 0 0 0 0 0 0 0 0 0 0 0 1 3 11 6 3 2 5 9 4
0 0 41 507 87 74 41 0 0 70 225 559 959 851 777 643 379 274 42 38 0 0 0 0 0 0 0 0 0 0 0 0 0 2 5 7 2 3 6 7 8 12 10 5
0 0 5 402 289 137 73 1 1 209 350 271 507 576 601 605 356 58 8 0 0 0 0 0 0 0 0 0 0 0 0 0 0 2 0 1 0 9 9 4 4 5 10 9
13 370 183 521 325 269 136 60 322 497 180 71 678 674 351 120 55 35 0 0 0 0 0 0 0 0 0 0 0 0 0 0 0 1 0 2 2 0 1 0 0 1 1 1
424 596 809 735 347 260 218 187 167 176 183 699 689 438 202 119 25 0 0 0 0 0 0 0 0 0 0 0 0 0 0 0 0 0 0 0 3 1 1 1 0 0 0 0
858 784 66 29 209 209 90 93 13 173 361 591 482 332 154 86 6 0 0 0 0 0 0 0 0 0 0 0 0 0 0 0 0 2 1 0 0 0 0 2 8 1 0 0
200 234 653 381 254 622 590 499 207 172 180 213 228 152 30 0 0 0 0 0 0 0 0 0 0 0 0 0 0 0 0 0 0 0 0 0 0 0 0 0 0 0 0 0
68 106 328 297 488 820 585 348 250 176 143 79 9 1 0 0 0 0 0 0 0 0 0 0 0 0 0 0 0 0 0 0 0 0 0 0 0 0 0 0 0 0 0 0
CIN
0 0 0 0 0 0 -14 -36 -34 -14 -88 -111 -118 -111 -95 -105 -99 -97 -141 -127 -118 -99 -87 -65 -59 -134 -235 -325 -141 -103 -107 -147 -170 -113 -82 -76 -76 -123 -102 -122 -104 -92 -88 -98
0 0 0 0 0 0 0 -11 -19 -6 0 0 -70 -79 -76 -81 -66 -72 -88 -128 -102 -85 -98 -106 -107 -109 -142 -119 -101 -106 -114 -120 -141 -135 -127 -112 -142 -100 -99 -111 -116 -73 -94 -95
0 0 0 0 -8 0 0 -2 0 -14 0 0 -12 -55 -58 -62 -42 -53 -71 -94 -79 -95 -107 -101 -66 -111 -85 -87 -111 -122 -114 -127 -141 -106 -69 -92 -119 -80 -67 -62 -101 -108 -77 -87
0 0 0 0 -9 -31 -18 -7 -12 -27 0 0 0 -68 -242 -156 -91 -49 -94 -84 -87 -61 -82 -171 -117 -60 -76 -84 -105 -103 -107 -104 -127 -86 -47 -38 -47 -45 -73 -64 -61 -47 -64 -52
0 0 0 0 -2 -23 -10 0 -52 -44 0 0 0 -112 -186 0 -264 -116 -136 -199 -261 -288 -534 -550 -456 -107 -85 -75 -64 -85 -94 -74 -49 -34 -36 -30 -29 -31 -35 -55 -45 -69 -51 -68
0 0 0 0 -44 -13 -8 0 0 0 0 0 0 -54 -141 -227 -233 0 -24 -477 -729 0 -265 -549 -429 -396 -145 -96 -77 -73 -60 -56 -57 -36 -19 -15 -10 -9 -17 -24 -38 -57 -58 -67
0 0 0 0 -29 -14 -3 0 0 0 0 0 -39 -52 -56 -264 -77 -383 -304 -574 -648 -714 0 -716 -425 -323 -148 -158 -63 -88 -85 -66 -52 -42 -24 -13 -12 -14 -19 -28 -56 -52 -59 -58
0 0 0 0 -20 -17 -38 -21 0 0 -27 -61 -120 -94 -145 -333 -188 0 0 -385 -35 0 0 0 0 -599 -48 -76 -74 -76 -65 -35 -38 -46 -39 -33 -24 -33 -41 -42 -37 -50 -61 -50
0 0 0 0 -14 -26 -20 -13 0 -2 -6 0 -158 -201 -208 -280 -244 -256 -193 -339 -493 -577 -149 -641 -543 -222 -128 -89 -57 -48 -25 -13 -37 -37 -37 -28 -41 -59 -56 -49 -48 -48 -48 -55
0 0 0 0 -7 0 0 -53 -13 -12 -11 -48 -115 -125 -103 -212 -221 -145 -107 -335 -144 -219 -227 -180 -101 -206 -150 -88 -75 -47 -42 -45 -51 -31 -41 -27 -38 -38 -48 -57 -55 -49 -53 -52
0 0 0 0 -4 0 0 0 -12 0 0 -44 -140 -136 -191 -269 -332 -281 -318 -124 -85 -159 -157 -101 -54 -83 -120 -128 -91 -57 -122 -255 -244 -214 -286 -250 -139 -231 -238 -146 -124 -116 -103 -81
0 0 0 0 -33 -50 0 -79 0 0 -58 -78 -143 -149 -520 -404 -365 -363 -136 -73 -87 -285 -301 -227 -209 -326 -309 -349 -340 -402 -415 -480 -480 -412 -355 -307 -248 -258 -297 -220 -176 -129 -109 -87
0 0 0 0 -11 -29 0 0 0 0 -195 -198 -80 -169 -297 -423 -617 -417 -443 -281 -31 -354 -605 -494 -322 -340 -339 -340 -481 0 -147 -527 -436 -381 -345 -267 -374 -368 -284 0 0 0 0 -263
0 0 -52 -49 -104 -91 -55 -39 -32 0 -110 -154 -172 -254 -483 -396 -410 -670 -481 -394 -56 -239 -296 -301 -397 -335 -459 0 -564 -502 -444 0 0 -381 -143 0 0 0 0 0 0 0 0 0
0 0 -88 0 0 0 -237 -67 -50 -62 0 -132 -293 -205 -501 0 -298 -711 -581 -207 -22 -270 -275 -217 -281 -231 -406 -456 -376 -523 -476 -418 -107 0 0 0 0 0 0 0 0 0 0 0
0 -41 -49 -141 -3 -217 -146 0 0 -77 -14 -261 -167 -316 -336 -254 -346 -175 -138 -116 -217 -210 -244 -390 -346 -379 -352 -379 -466 -518 -524 0 0 0 0 0 0 0 0 0 0 0 0 0
0 -39 -46 -70 -141 -130 -76 -101 -30 -173 -229 -301 -166 -257 -383 -222 -102 -74 -86 -166 -241 -322 -352 -348 -217 0 0 0 0 0 0 0 0 0 0 0 0 0 0 0 0 -1 -4 -6
0 0 -113 -57 -83 -30 -55 -61 0 -97 -101 -106 -119 -199 -247 -152 -148 -161 -289 -277 -366 -449 -527 -158 0 0 0 0 0 0 0 0 0 0 0 0 0 -11 -3 -4 -5 -9 -7 -5
0 0 -66 -39 -93 -80 -107 -164 0 0 -9 -1 -78 -105 -121 -154 -158 -173 -256 -371 -453 -515 0 0 0 0 0 0 0 0 0 0 0 0 0 -10 -11 -3 -9 -8 -7 -8 -2 -2
0 0 -66 -32 -36 -42 -103 0 -8 -141 -31 -43 -82 -101 -152 -177 -190 -257 -471 -500 0 0 0 0 0 0 0 0 0 0 0 0 0 -7 -4 -6 -14 -8 -8 -7 -4 -5 -5 -1
0 0 -58 -49 -155 -173 -223 -90 -63 -78 -59 -46 -79 -111 -140 -115 -182 -414 -520 0 0 0 0 0 0 0 0 0 0 0 0 0 -2 -7 -4 -7 0 -7 -7 -3 -6 -4 -5 -5
-104 -56 -49 -177 -195 -182 -363 -274 -138 -228 -200 -183 -179 -230 -257 -352 -454 -504 0 0 0 0 0 0 0 0 0 0 0 0 0 0 0 -11 -5 -10 -11 0 -2 -1 -1 -3 -5 -3
-42 -75 -111 -175 -186 -378 -359 -296 -320 -190 -175 -231 -251 -268 -291 -347 -501 0 0 0 0 0 0 0 0 0 0 0 0 0 0 0 0 0 0 -2 -15 -30 -12 -1 0 -1 -6 0
-144 -271 -323 -323 -249 -308 -304 -305 -162 -232 -167 -174 -225 -225 -288 -388 -445 0 0 0 0 0 0 0 0 0 0 0 0 0 0 0 0 -27 -11 0 0 0 0 -9 -5 -4 0 0
-414 -362 -220 -329 -339 -197 -192 -147 -169 -235 -243 -225 -202 -208 -347 0 0 0 0 0 0 0 0 0 0 0 0 0 0 0 0 0 0 0 0 0 0 0 0 0 0 0 0 0
-481 -452 -202 -122 -188 -140 -167 -209 -263 -288 -262 -310 -376 -132 0 0 0 0 0 0 0 0 0 0 0 0 0 0 0 0 0 0 0 0 0 0 0 0 0 0 0 0 0 0
Wind_Speed
10 4 10 14 8 5 6 9 13 10 16 15 13 15 19 18 16 15 14 13 12 13 12 9 11 16 11 7 8 9 9 11 10 5 4 3 4 5 3 4 7 7 8 7
9 11 15 15 12 11 14 13 6 9 9 5 13 19 20 19 16 17 18 16 17 14 15 16 10 14 15 15 14 9 10 11 10 7 4 4 3 3 4 4 5 7 8 8
11 14 16 17 10 7 9 1 1 3 4 3 5 11 15 16 10 15 17 19 17 17 17 11 10 14 17 14 12 12 10 12 10 8 4 2 2 0 1 3 4 7 8 8
9 18 18 14 7 6 9 2 1 6 7 6 6 2 5 3 4 10 2 12 4 9 15 9 2 7 11 15 13 12 10 10 8 8 4 6 4 4 4 3 4 5 7 7
13 13 13 15 15 9 3 6 7 7 4 3 7 8 2 7 5 6 6 13 26 20 17 20 19 5 4 6 12 12 7 8 7 7 6 3 3 2 2 2 6 4 5 7
10 12 12 15 15 9 3 1 4 5 2 4 8 6 4 4 7 4 7 22 23 23 21 11 25 12 7 5 4 11 9 5 7 6 5 3 3 4 2 3 3 3 3 5
11 14 12 13 7 3 5 3 3 5 4 7 3 9 8 8 7 9 14 18 19 22 23 22 24 9 9 5 11 10 8 6 5 5 3 3 1 2 2 2 2 5 3 2
7 10 9 11 10 7 8 8 7 5 4 4 5 6 1 5 8 9 8 21 22 22 18 19 17 5 6 14 11 10 7 6 6 6 5 4 3 2 2 1 1 3 2 3
7 10 10 12 6 6 4 2 9 4 6 1 3 3 3 9 2 7 10 24 19 16 12 4 5 8 13 13 10 10 8 6 7 6 5 4 3 2 3 2 2 3 4 3
14 4 11 12 7 5 7 5 4 5 1 5 4 3 4 4 2 4 12 17 13 8 8 6 6 5 7 11 9 8 8 7 6 6 2 4 5 3 5 4 5 6 6 4
11 4 19 7 6 8 3 5 5 1 4 6 5 6 5 3 5 7 15 10 18 17 12 9 14 11 10 9 6 6 8 8 7 7 8 11 8 9 10 9 7 8 10 9
14 5 7 13 11 13 11 10 8 6 9 1 6 1 8 7 6 13 8 7 7 12 11 7 9 12 9 10 7 8 8 10 9 7 7 7 7 7 8 7 9 10 12 11
9 5 7 10 9 12 10 7 5 6 6 3 4 5 3 11 12 17 10 9 3 10 11 6 8 9 7 6 8 9 10 9 9 8 7 9 12 12 12 11 11 11 11 9
9 4 4 5 4 6 5 8 8 9 6 2 3 9 9 14 14 17 14 10 7 12 11 8 7 5 1 4 7 7 8 7 6 8 10 9 10 9 8 7 9 9 9 10
3 3 3 11 10 6 7 6 10 9 5 5 6 6 9 12 8 22 17 14 16 14 11 8 6 6 4 5 6 7 6 9 8 7 8 7 7 7 8 9 9 9 9 9
2 2 3 4 8 14 16 4 3 11 12 11 12 5 5 6 9 17 21 15 14 13 12 10 8 6 4 6 7 7 7 6 7 7 6 6 7 8 9 11 10 7 9 9
7 6 4 3 6 7 5 9 5 13 14 21 9 9 8 2 13 11 13 14 14 10 8 7 7 6 10 8 7 7 7 8 7 7 8 10 10 9 7 7 7 8 7 7
8 5 3 4 2 5 6 9 17 13 15 10 12 9 8 11 9 10 11 11 11 10 9 8 7 9 9 8 9 9 7 8 9 10 10 8 7 8 8 8 8 9 9 9
10 6 3 5 3 12 14 9 5 8 11 17 16 15 15 14 12 8 10 10 10 9 7 6 9 8 9 9 8 8 10 10 10 8 7 8 8 8 9 9 9 8 7 9
9 7 7 2 14 7 5 7 10 12 5 15 19 15 19 15 8 4 10 10 11 10 7 7 9 10 9 7 7 10 8 8 7 7 7 6 7 7 6 6 8 7 6 9
8 4 8 4 5 3 6 2 5 10 6 7 12 16 16 6 7 10 13 11 11 9 7 9 10 9 7 7 8 8 7 7 5 4 4 3 5 6 6 7 6 7 7 7
8 6 3 6 5 2 3 3 8 9 7 11 13 18 18 18 16 14 13 12 10 9 9 8 8 7 7 7 7 7 7 3 2 5 5 4 3 3 4 9 8 7 9 9
5 5 7 3 7 6 4 7 5 2 9 12 17 16 19 17 16 15 13 10 9 9 7 7 7 8 6 6 5 7 2 2 4 5 6 4 5 5 3 8 9 6 6 6
5 2 7 8 4 7 5 2 2 6 13 15 17 15 16 16 15 15 13 10 8 8 7 7 8 7 6 6 7 4 2 1 4 5 3 4 5 6 5 4 3 4 3 3
5 8 5 6 7 7 7 8 9 14 16 14 10 14 14 17 15 15 12 9 8 7 7 7 7 6 5 6 6 5 4 4 5 5 3 1 2 2 2 3 3 2 2 3
3 5 4 4 6 4 6 8 14 16 12 13 15 15 14 17 16 14 10 8 7 7 6 6 6 6 4 5 5 4 5 4 5 5 3 4 3 3 3 3 5 7 8 6
Wind_Direction
244 227 236 257 257 283 238 187 224 239 173 162 175 174 175 181 184 178 167 172 174 165 168 162 157 161 164 175 192 174 163 163 167 164 161 171 181 200 212 209 205 200 203 195
253 239 248 263 273 187 234 218 253 167 154 150 147 174 182 188 191 181 171 180 177 179 163 164 151 161 173 185 185 174 174 164 168 160 172 169 164 199 206 205 219 208 208 204
222 244 242 249 258 254 268 220 160 183 145 259 176 188 178 200 181 184 181 185 180 175 159 163 159 169 176 184 186 187 184 173 170 167 152 161 119 234 183 220 219 222 205 203
233 243 257 261 235 247 253 105 39 223 138 211 184 131 7 327 126 159 118 198 350 125 110 23 161 159 155 190 186 190 184 165 173 177 175 175 172 197 215 225 234 228 208 211
248 245 242 259 252 244 199 48 262 286 225 355 296 87 239 348 357 279 263 100 117 81 40 357 311 265 190 150 177 179 159 158 169 177 173 162 191 230 269 285 286 307 213 212
235 247 239 242 261 227 237 72 288 312 34 349 296 102 268 222 209 280 272 114 120 125 122 229 268 274 204 176 133 138 135 152 123 144 169 190 241 256 264 294 301 285 255 229
273 252 260 254 226 257 62 28 319 339 356 224 18 61 233 226 239 220 117 124 133 140 150 201 224 245 206 148 136 126 121 128 120 129 144 159 197 268 270 311 298 305 302 262
237 275 245 263 225 190 177 184 171 232 200 227 110 146 213 212 266 347 357 156 148 159 186 195 211 288 188 129 119 119 118 124 123 107 89 81 60 49 2 352 308 303 296 309
211 250 264 240 193 207 242 279 228 275 310 56 78 82 44 48 148 289 303 150 183 190 214 130 72 236 102 103 101 105 108 121 133 143 151 146 179 231 254 277 289 290 291 285
257 311 240 256 192 241 164 228 330 326 229 63 346 48 179 52 280 357 29 22 123 97 82 98 148 109 80 105 112 106 132 148 136 157 144 201 207 227 222 232 260 264 263 267
241 192 276 247 178 180 226 251 256 178 167 145 147 280 269 50 10 59 30 48 304 89 69 62 75 60 50 51 65 84 51 64 44 41 54 44 43 52 55 40 25 15 5 341
216 200 238 238 191 209 206 205 191 135 290 31 111 272 340 153 114 55 346 322 360 87 95 80 62 75 66 61 47 25 54 46 31 27 35 34 46 25 40 23 10 12 10 2
203 247 266 295 244 236 211 210 230 121 81 25 87 120 18 116 125 146 201 258 336 133 110 67 46 41 37 46 56 51 39 34 23 23 15 30 36 31 32 30 18 13 5 351
150 216 161 218 114 7 324 184 113 117 93 147 82 133 190 204 151 173 195 177 253 122 123 89 88 66 109 70 71 68 54 44 43 32 48 36 31 26 18 12 9 2 354 352
122 177 132 86 86 69 325 343 108 104 149 104 175 123 227 215 151 185 182 211 169 129 119 132 148 187 147 115 93 76 67 52 53 53 44 28 23 17 15 8 4 358 358 352
144 225 132 117 132 112 256 273 243 124 128 112 135 151 267 331 97 148 176 153 122 130 138 148 145 166 160 93 83 66 75 69 67 58 39 33 28 11 8 8 0 358 349 345
172 156 153 225 190 206 223 229 201 116 137 143 166 212 162 181 106 123 127 124 129 129 119 115 127 98 98 89 77 61 62 60 53 44 30 25 22 19 7 347 341 337 333 331
172 189 175 195 80 181 313 15 99 94 135 165 132 137 153 103 94 83 98 98 84 84 80 76 72 71 75 72 63 63 56 54 46 33 26 17 6 351 341 341 354 352 348 341
168 175 228 114 305 86 326 358 32 98 107 144 125 122 113 107 91 72 96 94 100 100 84 82 94 89 72 69 61 63 57 49 39 18 5 350 339 348 353 350 345 338 339 343
185 181 142 1 159 170 163 315 52 99 77 126 128 135 134 128 124 171 113 105 91 86 73 73 90 86 74 67 65 77 64 53 27 359 353 356 350 337 325 330 338 337 334 337
195 225 197 180 86 95 135 279 70 80 198 122 135 147 151 137 150 133 101 89 93 100 78 81 83 88 83 61 66 85 75 57 7 352 351 335 342 351 10 352 349 351 347 338
166 137 175 100 96 182 196 38 104 193 158 116 106 113 109 112 113 109 99 92 88 83 76 85 86 89 75 63 65 96 87 88 354 320 321 314 17 346 25 18 14 7 5 354
148 166 142 114 177 131 128 156 226 182 109 114 116 119 124 120 116 111 106 101 91 89 81 74 95 86 70 58 58 99 120 58 322 321 331 26 3 342 27 27 18 13 11 6
48 27 113 103 292 104 81 338 242 144 98 116 124 128 124 125 121 118 116 105 98 91 85 76 79 80 64 46 66 104 139 135 321 310 350 48 40 7 12 2 9 0 3 332
351 337 334 54 57 98 210 163 114 86 91 95 91 113 121 117 111 109 108 104 104 100 96 89 91 88 74 65 67 42 0 358 339 337 37 345 127 99 1 329 289 308 271 222
3 3 11 200 170 135 152 113 102 96 93 87 89 89 89 107 108 106 106 103 103 104 98 96 100 97 88 73 71 19 340 338 331 332 310 296 225 215 207 248 289 277 243 223